User: anonymous   Login
Location: ???????
(55.4362°N, 38.1183°E)
Time: 14:33:52
(UTC+00:00)
Language:

M-CUBED/EXP-1 PRIME - Orbit

View from above orbital plane
View from above orbital plane
View from above satellite
View from above satellite

Ground track
Ground track

The orbit data is extracted from the following two-line orbital elements,

1 37855U 11061F   21331.82440068  .00004648  00000-0  22361-3 0  9998
2 37855 101.7243 340.2096 0163335 304.5090  54.0792 15.08815871550803
Epoch (UTC): 27 November 2021 19:47:08
Eccentricity: 0.0163335
inclination: 101.7243°
perigee height: 427 km
apogee height: 653 km
right ascension of ascending node: 340.2096°
argument of perigee: 304.5090°
revolutions per day: 15.08815871
mean anomaly at epoch: 54.0792°
orbit number at epoch: 55080

The dashed part of the orbit path shows where the satellite is in the earth's shadow,  

DLR